FLOCK 2K-45

Last updated on Wed Feb 14 2018 16:20:52 GMT+0000 (Coordinated Universal Time)

1 42856U 17042AH 18044.67848476 .00005380 00000-0 15735-3 0 9996 2 42856 96.9923 307.4811 0009892 189.0727 171.0341 15.35610724 32670
UTC large
Height (km)
Speed (km/s)
/
Latitude / Longitude
Inclination (degrees)
Orbital Period (minutes)
Azimuth
Elevation
Range (km)
Doppler Factor

Next 0 passes for location: London (51.5072 / 0.1276)

Sorry there are no passes over London.